Location: Bailleul
(50.3375°N, 2.8513°E)
Time: 12:55:52
(UTC+00:00)

Geosat - Pass Details

Date: 16 June 2021
Orbit: 762 x 766 km, 108.0° (Epoch: 29 July)

Event Time Altitude Azimuth Distance (km) Brightness Sun altitude
Exits shadow 21:15:05 10° 162° (SSE) 2,327 5.9 -8.8°
Reaches altitude 10° 21:15:10 10° 162° (SSE) 2,293 5.9 -8.8°
Maximum altitude 21:20:06 61° 243° (WSW) 865 4.3 -9.2°
Drops below altitude 10° 21:25:06 10° 324° (NW) 2,311 8.2 -9.7°
Sets 21:27:25 0° 328° (NNW) 3,242 9.6 -9.9°
